• In Österreich
  • Länderverzeichnis
  • Für 7 Tage
  • Wassertemperatur
  • Satellitenkarten
  • Wetterkarte
  • News
  • Widgets
  • user-avatar
    Anmelden

    Stündliche Wetter Ilmanovo

    Heute, 20 August, Montag

    Zeit Temperatur Niederschläge Wind Luftdruck Luftfeuchtigkeit
    00:00 +15°C° 0 mm 2 m/S 742 mmHg 94%
    01:00 +15°C° 0 mm 1 m/S 742 mmHg 94%
    02:00 +14°C° 0 mm 1 m/S 742 mmHg 95%
    03:00 +14°C° 0 mm 1 m/S 742 mmHg 95%
    04:00 +15°C° 0 mm 1 m/S 742 mmHg 95%
    05:00 +15°C° 0 mm 1 m/S 742 mmHg 96%
    06:00 +16°C° 0 mm 2 m/S 742 mmHg 92%
    07:00 +17°C° 0 mm 2 m/S 742 mmHg 88%
    08:00 +19°C° 0 mm 2 m/S 742 mmHg 85%
    09:00 +20°C° 0,1 mm 3 m/S 742 mmHg 79%
    10:00 +21°C° 0,1 mm 3 m/S 741 mmHg 73%
    11:00 +24°C° 0,1 mm 3 m/S 741 mmHg 67%
    12:00 +23°C° 0,1 mm 4 m/S 741 mmHg 65%
    13:00 +23°C° 0,1 mm 4 m/S 741 mmHg 63%
    14:00 +25°C° 0,1 mm 4 m/S 740 mmHg 62%
    15:00 +24°C° 0,2 mm 3 m/S 740 mmHg 67%
    16:00 +24°C° 0,2 mm 3 m/S 739 mmHg 72%
    17:00 +23°C° 0,2 mm 2 m/S 739 mmHg 77%
    18:00 +21°C° 0,1 mm 2 m/S 739 mmHg 81%
    19:00 +20°C° 0,1 mm 2 m/S 738 mmHg 85%
    20:00 +19°C° 0,1 mm 2 m/S 738 mmHg 89%
    21:00 +19°C° 0,1 mm 3 m/S 738 mmHg 90%
    22:00 +18°C° 0,1 mm 3 m/S 737 mmHg 91%
    23:00 +18°C° 0,1 mm 4 m/S 737 mmHg 93%

    Morgen, 21 August, Dienstag

    Zeit Temperatur Niederschläge Wind Luftdruck Luftfeuchtigkeit
    00:00 +18°C° 0 mm 4 m/S 736 mmHg 93%
    01:00 +18°C° 0 mm 4 m/S 736 mmHg 93%
    02:00 +18°C° 0 mm 4 m/S 735 mmHg 93%
    03:00 +18°C° 0,2 mm 4 m/S 735 mmHg 94%
    04:00 +18°C° 0,2 mm 4 m/S 734 mmHg 94%
    05:00 +17°C° 0,2 mm 4 m/S 734 mmHg 95%
    06:00 +17°C° 0,3 mm 5 m/S 733 mmHg 94%
    07:00 +17°C° 0,3 mm 5 m/S 733 mmHg 92%
    08:00 +17°C° 0,3 mm 5 m/S 733 mmHg 91%
    09:00 +17°C° 0,3 mm 6 m/S 734 mmHg 84%
    10:00 +19°C° 0,3 mm 6 m/S 734 mmHg 77%
    11:00 +20°C° 0,3 mm 6 m/S 734 mmHg 70%
    12:00 +20°C° 0,1 mm 6 m/S 735 mmHg 64%
    13:00 +20°C° 0,1 mm 6 m/S 735 mmHg 57%
    14:00 +21°C° 0,1 mm 6 m/S 735 mmHg 51%
    15:00 +20°C° 0 mm 6 m/S 736 mmHg 54%
    16:00 +19°C° 0 mm 5 m/S 736 mmHg 56%
    17:00 +17°C° 0 mm 5 m/S 737 mmHg 58%
    18:00 +15°C° 0 mm 4 m/S 737 mmHg 67%
    19:00 +14°C° 0 mm 4 m/S 738 mmHg 75%
    20:00 +12°C° 0 mm 3 m/S 738 mmHg 84%
    21:00 +11°C° 0 mm 3 m/S 739 mmHg 87%
    22:00 +11°C° 0 mm 3 m/S 739 mmHg 90%
    23:00 +10°C° 0 mm 3 m/S 739 mmHg 93%

    übermorgen, 22 August, Mittwoch

    Zeit Temperatur Niederschläge Wind Luftdruck Luftfeuchtigkeit
    00:00 +10°C° 0 mm 3 m/S 740 mmHg 93%
    01:00 +9°C° 0 mm 3 m/S 740 mmHg 92%
    02:00 +9°C° 0 mm 3 m/S 740 mmHg 92%
    03:00 +9°C° 0 mm 3 m/S 741 mmHg 92%
    04:00 +9°C° 0 mm 3 m/S 741 mmHg 92%
    05:00 +8°C° 0 mm 3 m/S 742 mmHg 92%
    06:00 +10°C° 0 mm 4 m/S 742 mmHg 84%
    07:00 +11°C° 0 mm 4 m/S 743 mmHg 76%
    08:00 +12°C° 0 mm 4 m/S 743 mmHg 68%
    09:00 +13°C° 0 mm 5 m/S 743 mmHg 61%
    10:00 +14°C° 0 mm 5 m/S 744 mmHg 54%
    11:00 +15°C° 0 mm 5 m/S 744 mmHg 46%
    12:00 +16°C° 0 mm 5 m/S 744 mmHg 46%
    13:00 +16°C° 0 mm 5 m/S 744 mmHg 45%
    14:00 +18°C° 0 mm 4 m/S 745 mmHg 44%
    15:00 +18°C° 0 mm 4 m/S 745 mmHg 47%
    16:00 +17°C° 0 mm 4 m/S 745 mmHg 49%
    17:00 +17°C° 0 mm 3 m/S 745 mmHg 52%
    18:00 +14°C° 0 mm 3 m/S 745 mmHg 59%
    19:00 +13°C° 0 mm 2 m/S 746 mmHg 67%
    20:00 +11°C° 0 mm 1 m/S 746 mmHg 74%
    21:00 +11°C° 0 mm 1 m/S 746 mmHg 77%
    22:00 +10°C° 0 mm 1 m/S 747 mmHg 79%
    23:00 +9°C° 0 mm 1 m/S 747 mmHg 82%

    23 August, Donnerstag

    Zeit Temperatur Niederschläge Wind Luftdruck Luftfeuchtigkeit
    00:00 +9°C° 0 mm 1 m/S 747 mmHg 83%
    01:00 +9°C° 0 mm 1 m/S 747 mmHg 84%
    02:00 +8°C° 0 mm 1 m/S 747 mmHg 85%
    03:00 +8°C° 0 mm 1 m/S 747 mmHg 85%
    04:00 +8°C° 0 mm 1 m/S 747 mmHg 85%
    05:00 +8°C° 0 mm 1 m/S 748 mmHg 86%
    06:00 +10°C° 0 mm 1 m/S 748 mmHg 78%
    07:00 +12°C° 0 mm 2 m/S 748 mmHg 70%
    08:00 +14°C° 0 mm 2 m/S 748 mmHg 63%
    09:00 +16°C° 0 mm 2 m/S 747 mmHg 57%
    10:00 +18°C° 0 mm 2 m/S 747 mmHg 52%
    11:00 +19°C° 0 mm 3 m/S 747 mmHg 46%
    12:00 +20°C° 0 mm 3 m/S 747 mmHg 45%
    13:00 +20°C° 0 mm 3 m/S 747 mmHg 44%
    14:00 +21°C° 0 mm 3 m/S 747 mmHg 42%
    15:00 +20°C° 0 mm 3 m/S 746 mmHg 47%
    16:00 +20°C° 0 mm 2 m/S 746 mmHg 51%
    17:00 +20°C° 0 mm 2 m/S 746 mmHg 55%
    18:00 +18°C° 0 mm 2 m/S 746 mmHg 63%
    19:00 +15°C° 0 mm 2 m/S 746 mmHg 70%
    20:00 +13°C° 0 mm 2 m/S 746 mmHg 78%
    21:00 +12°C° 0 mm 2 m/S 746 mmHg 81%
    22:00 +12°C° 0 mm 2 m/S 746 mmHg 84%
    23:00 +10°C° 0 mm 2 m/S 746 mmHg 87%

    24 August, Freitag

    Zeit Temperatur Niederschläge Wind Luftdruck Luftfeuchtigkeit
    00:00 +10°C° 0 mm 2 m/S 746 mmHg 89%
    01:00 +9°C° 0 mm 2 m/S 746 mmHg 91%
    02:00 +9°C° 0 mm 2 m/S 746 mmHg 94%
    03:00 +9°C° 0 mm 2 m/S 746 mmHg 94%
    04:00 +9°C° 0 mm 2 m/S 746 mmHg 95%
    05:00 +8°C° 0 mm 2 m/S 746 mmHg 96%
    06:00 +12°C° 0 mm 2 m/S 746 mmHg 87%
    07:00 +14°C° 0 mm 2 m/S 746 mmHg 79%
    08:00 +16°C° 0 mm 2 m/S 746 mmHg 70%
    09:00 +18°C° 0 mm 2 m/S 746 mmHg 63%
    10:00 +19°C° 0 mm 3 m/S 746 mmHg 56%
    11:00 +21°C° 0 mm 3 m/S 746 mmHg 50%
    12:00 +22°C° 0 mm 3 m/S 745 mmHg 48%
    13:00 +22°C° 0 mm 3 m/S 745 mmHg 46%
    14:00 +24°C° 0 mm 3 m/S 745 mmHg 44%
    15:00 +24°C° 0 mm 3 m/S 745 mmHg 49%
    16:00 +23°C° 0 mm 2 m/S 744 mmHg 53%
    17:00 +23°C° 0 mm 2 m/S 744 mmHg 58%
    18:00 +19°C° 0 mm 2 m/S 744 mmHg 65%
    19:00 +17°C° 0 mm 2 m/S 744 mmHg 72%
    20:00 +15°C° 0 mm 2 m/S 744 mmHg 79%
    21:00 +14°C° 0 mm 2 m/S 744 mmHg 82%
    22:00 +14°C° 0 mm 2 m/S 744 mmHg 85%
    23:00 +13°C° 0 mm 2 m/S 744 mmHg 87%

    25 August, Samstag

    Zeit Temperatur Niederschläge Wind Luftdruck Luftfeuchtigkeit
    00:00 +13°C° 0 mm 2 m/S 744 mmHg 89%
    01:00 +12°C° 0 mm 2 m/S 744 mmHg 90%
    02:00 +12°C° 0 mm 2 m/S 744 mmHg 91%
    03:00 +10°C° 0 mm 2 m/S 744 mmHg 91%
    04:00 +10°C° 0 mm 2 m/S 744 mmHg 90%
    05:00 +10°C° 0 mm 2 m/S 744 mmHg 90%
    06:00 +13°C° 0 mm 2 m/S 744 mmHg 82%
    07:00 +14°C° 0 mm 3 m/S 744 mmHg 74%
    08:00 +17°C° 0 mm 3 m/S 744 mmHg 66%
    09:00 +19°C° 0 mm 3 m/S 743 mmHg 59%
    10:00 +21°C° 0 mm 4 m/S 743 mmHg 53%
    11:00 +23°C° 0 mm 4 m/S 743 mmHg 46%
    12:00 +23°C° 0 mm 4 m/S 743 mmHg 45%
    13:00 +25°C° 0 mm 4 m/S 743 mmHg 43%
    14:00 +25°C° 0 mm 4 m/S 743 mmHg 42%
    15:00 +25°C° 0 mm 3 m/S 742 mmHg 46%
    16:00 +24°C° 0 mm 3 m/S 742 mmHg 51%
    17:00 +24°C° 0 mm 2 m/S 742 mmHg 56%
    18:00 +20°C° 0 mm 2 m/S 742 mmHg 62%
    19:00 +18°C° 0 mm 2 m/S 742 mmHg 69%
    20:00 +16°C° 0 mm 2 m/S 742 mmHg 76%
    21:00 +16°C° 0 mm 2 m/S 742 mmHg 77%
    22:00 +15°C° 0 mm 2 m/S 742 mmHg 79%
    23:00 +15°C° 0 mm 2 m/S 742 mmHg 80%
    Mehr zeigen